SCP
0 0 0 0 0 0 0 0 0 0 0 0 0 0 0 0 0 0 0 0 0 0 0 0 0 0 0 0 0 0 0 0 0 0 0 0 0 0 0 0 0 0 0
0 0 0 0 0 0 0 0 0 0 0 0 0 0 0 0 0 0 0 0 0 0 0 0 0 0 0 0 0 0 0 0 0 0 0 0 0 0 0 0 0 0 0
0 0 0 0 0 0 0 0 0 0 0 0 0 0 0 0 0 0 0 0 0 0 0 0 0 0 0 0 0 0 0 0 0 0 0 0 0 0 0 0 0 0 0
0 0 0 0 0 0 0 0 0 0 0 0 0 0 0 0 0 0 0 0 0 0 0 0 0 0 0 0 0 0 0 0 0 0 0 0 0 0 0 0 0 0 0
0 0 0 0 0 0 0 0 0 0 0 0 0 0 0 0 0 0 0 0 0 0 0 0 0 0 0 0 0 0 0 0 0 0 0 0 0 0 0 0 0 0 0
0 0 0 0 0 0 0 0 0 0 0 0 0 0 0 0 0 0 0 0 0 0 0 0 0 0 0 0 0 0 0 0 0 0 0 0 0 0 0 0 0 0 0
0 0 0 0 0 0 0 0 0 0 0 0 0 0 0 0 0 0 0 0 0 0 0 0 0 0 0 0 0 0 0 0 0 0 0 0 0 0 0 0 0 0 0
0 0 0 0 0 0 0 0 0 0 0 0 0 0 0 0 0 0 0 0 0 0 0 0 0 0 0 0 0 0 0 0 0 0 0 0 0 0 0 0 0 0 0
0 0 0 0 0 0 0 0 0 0 0 0 0 0 0 0 0 0 0 0 0 0 0 0 0 0 0 0 0 0 0 0 0 0 0 0 0 0 0 0 0 0 0
0 0 0 0 0 0 0 0 0 0 0 0 0 0 0 0 0 0 0 0 0 0 0 0 0 0 0 0 0 0 0 0 0 0 0 0 0 0 0 0 0 0 0
0 0 0 0 0 0 0 0 0 0 0 0 0 0 0 0 0 0 0 0 0 0 0 0 0 0 0 0 0 0 0 0 0 0 0 0 0 0 0 0 0 0 0
0 0 0 0 0 0 0 0 0 0 0 0 0 0 0 0 0 0 0 -0 0 0 0 0 0 0 0 0 0 0 0 0 0 0 0 0 0 0 0 0 0 0 0
0 0 0 0 0 0 0 0 0 0 0 0 0 0 0 0 0 0 -0 -0 0 0 0 0 0 0 0 0 0 0 0 0 0 0 0 0 0 0 0 0 0 0 0
0 0 0 0 0 0 0 0 0 0 0 0 0 0 0 0 0 0 0 0 0 0 0 0 0 0 0 0 0 0 0 0 0 0 0 0 0 0 0 0 0 0 0
0 0 0 0 0 0 0 0 0 0 0 0 0 0 0 0 0 0 0 0 0 0 0 0 0 0 0 0 0 0 0 0 0 0 0 0 0 0 0 0 0 0 0
0 0 0 0 0 0 0 0 0 0 0 0 0 0 0 0 0 0 0 0 0 0 0 0 0 0 0 0 0 0 0 0 0 0 0 0 0 0 0 0 0 0 0
0 0 0 0 0 0 0 0 0 0 0 0 0 0 0 0 0 -0 -0 0 0 0 0 0 0 0 0 0 0 0 0 0 0 0 0 0 0 0 0 0 0 0 0
0 0 0 0 0 0 0 0 0 0 0 0 0 0 0 0 0 0 0 0 0 0 0 0 0 0 0 0 0 0 0 0 0 0 0 0 0 0 0 0 0 0 0
0 0 0 0 0 0 0 0 0 0 0 0 0 0 0 0 0 0 0 0 0 0 0 0 0 0 0 0 0 0 0 0 0 0 0 0 0 0 0 0 0 0 0
0 0 0 0 0 0 0 0 0 0 0 0 0 0 0 0 0 0 0 0 0 0 0 0 0 0 0 0 0 0 0 0 0 0 0 0 0 0 0 0 0 0 0
0 0 0 0 0 0 0 0 0 0 0 -0 -0 -0 -0 0 0 0 0 0 0 0 0 0 0 0 0 0 0 0 0 0 0 0 0 0 0 0 0 0 0 0 0
0 0 0 0 0 0 0 0 -0 -0 -0 -0 -0 0 0 0 0 0 0 0 0 0 0 0 0 0 0 0 0 0 0 0 0 0 0 0 0 0 0 0 0 0 -0
0 0 0 0 0 0 -0 -0 -0 -0 -0 0 0 0 0 0 0 0 0 0 0 0 0 0 0 0 0 0 0 0 0 0 0 0 0 0 0 0 0 0 0 0 0
0 0 0 0 -0 -0 -0 -0 0 0 0 0 0 0 0 0 0 0 0 0 0 0 0 0 0 0 0 0 0 0 0 0 0 0 0 0 0 0 0 0 0 0 0
0 0 0 -0 -0 -0 -0 0 0 0 0 0 0 0 0 0 0 0 0 0 0 0 0 0 0 0 0 0 0 0 0 0 0 0 0 0 0 0 0 0 0 0 0
0 0 0 -0 -0 -0 -0 -0 -0 0 0 0 0 0 0 0 0 0 0 0 0 0 0 0 0 0 0 0 0 0 0 0 0 0 0 0 0 0 0 0 0 0 0
Wind_Speed_500mb
20 24 29 34 38 42 45 47 50 51 53 54 54 54 53 51 50 55 59 60 63 62 62 65 64 62 65 65 65 64 65 64 75 78 79 76 83 78 71 69 69 71 68
25 32 39 44 46 47 47 47 48 49 48 51 52 54 54 53 54 54 56 56 61 65 66 69 70 66 67 65 67 68 66 65 69 81 80 80 82 76 76 74 74 73 69
33 37 42 44 46 47 46 46 46 47 46 48 51 53 54 55 56 56 59 61 63 64 63 67 68 67 69 67 68 68 66 65 68 73 83 84 81 76 77 73 79 76 74
37 40 42 44 47 49 50 52 52 53 53 52 51 53 54 56 57 58 62 66 68 68 66 65 66 68 68 67 67 66 64 66 70 71 77 85 75 75 73 78 86 80 82
40 43 43 43 45 46 47 49 51 53 55 57 58 57 57 57 56 59 63 67 69 69 70 69 67 65 66 65 65 66 62 63 67 71 77 77 73 75 74 76 81 88 82
44 44 40 40 42 44 47 51 53 55 58 60 62 64 64 63 60 61 63 68 69 72 72 70 71 67 65 63 60 62 62 64 66 65 71 70 73 71 74 76 76 84 82
43 42 40 45 52 54 57 62 64 66 67 68 70 71 70 66 62 63 66 72 74 74 72 72 73 70 66 63 58 56 60 62 64 64 72 71 74 74 72 70 70 78 76
45 49 52 57 62 62 63 67 69 72 73 74 75 75 76 70 65 67 69 73 75 75 75 73 74 73 67 59 56 57 60 63 63 61 65 68 69 68 54 59 74 72 71
52 57 58 61 65 64 65 66 66 71 74 75 78 78 77 74 67 68 72 78 76 74 73 73 70 70 65 53 57 59 63 66 54 55 57 61 63 54 51 62 61 58 65
56 57 58 60 64 67 67 68 70 71 76 76 79 78 77 77 69 67 69 73 74 72 70 66 65 63 50 50 54 55 64 59 47 50 54 57 56 48 48 48 47 44 44
53 54 57 61 64 67 70 71 75 77 79 80 81 79 77 74 72 65 66 64 65 67 62 61 58 54 48 51 51 51 57 44 47 52 55 53 48 43 40 38 32 28 27
58 63 66 68 69 71 75 76 79 82 84 83 83 83 78 74 72 67 64 54 53 57 60 62 61 57 50 54 47 48 45 44 47 50 51 48 42 37 35 29 19 13 20
68 72 72 72 74 74 77 81 85 83 81 81 81 85 83 77 75 70 62 49 49 53 54 59 60 56 52 51 41 41 42 45 46 48 46 42 37 33 27 19 11 14 22
72 77 78 79 81 81 82 85 90 83 79 81 82 86 85 80 77 77 60 52 49 43 39 46 51 51 50 47 43 41 45 41 42 42 41 35 33 27 22 14 10 16 19
72 77 79 79 80 80 79 80 81 81 77 77 78 78 82 86 83 68 62 55 51 51 48 49 46 48 51 49 48 42 42 41 40 35 35 29 28 21 19 10 8 10 11
72 76 79 79 80 81 82 86 80 82 71 66 70 68 77 79 76 72 71 68 64 48 51 61 53 50 53 55 51 44 42 39 34 32 30 28 21 18 15 9 6 4 3
74 77 78 77 80 82 81 80 89 89 84 88 82 76 74 78 74 69 64 54 41 42 57 59 64 55 54 48 44 43 41 32 31 31 27 27 22 20 14 10 7 7 5
74 72 73 76 76 76 77 78 79 87 93 93 84 76 78 75 64 61 52 41 55 56 61 60 64 59 53 47 40 41 36 34 33 28 32 26 26 21 15 12 12 12 6
69 69 69 72 73 75 76 78 82 83 84 88 89 84 71 63 53 49 46 51 57 58 57 59 61 61 52 42 42 40 36 34 30 29 35 29 27 20 18 18 19 13 4
65 66 66 70 71 73 74 75 76 78 82 86 86 82 69 60 41 38 42 49 56 60 61 60 55 55 45 43 44 39 37 36 30 32 33 34 26 24 23 25 20 12 6
64 67 69 71 74 75 76 76 77 78 81 81 82 72 62 53 49 41 37 39 39 44 54 58 54 48 44 44 46 41 39 34 30 31 33 32 30 31 33 29 20 15 15
64 69 71 74 76 77 78 76 77 76 75 78 77 68 56 50 47 41 38 39 42 43 48 51 47 48 42 48 45 41 39 33 34 35 34 34 36 36 36 30 24 23 21
67 70 73 75 76 76 74 72 71 70 71 70 67 63 54 44 41 37 33 35 41 42 40 41 44 45 44 48 42 38 34 32 34 34 36 38 40 41 36 30 29 28 23
64 68 73 76 74 71 69 68 67 67 66 63 60 56 50 40 39 34 30 37 39 35 35 40 42 44 46 48 43 40 35 35 35 35 36 38 43 43 39 35 32 28 26
64 70 74 74 72 69 66 65 64 62 59 56 54 49 40 34 34 33 30 36 35 33 36 41 44 46 48 47 45 44 44 45 42 41 43 41 40 42 39 36 32 30 26
66 70 72 70 67 64 63 63 60 57 55 50 46 39 31 26 27 29 29 34 31 32 39 44 46 49 51 51 49 48 49 49 48 48 47 45 45 46 43 38 36 32 29
Wind_Direction_500mb
296 299 299 298 297 296 294 293 292 291 291 292 291 291 292 292 289 285 284 283 283 283 283 284 285 285 282 280 280 282 283 285 283 293 301 306 309 313 315 317 317 318 311
296 301 301 299 297 295 296 296 295 295 293 291 289 289 288 288 287 289 289 287 285 284 283 281 283 283 283 281 279 279 283 285 286 287 299 304 308 314 315 318 320 320 314
296 300 300 298 296 297 298 299 299 300 300 297 295 294 292 289 286 285 286 286 286 287 286 283 283 282 281 281 280 280 281 284 284 285 296 302 307 312 315 319 322 322 319
299 300 302 299 296 297 298 298 299 300 301 301 301 300 298 295 293 291 288 286 284 285 287 287 284 281 281 281 279 278 279 280 284 288 294 300 307 312 315 322 322 322 322
296 294 293 292 293 295 296 296 296 297 299 300 300 300 299 298 298 297 295 291 289 287 285 287 287 285 281 279 278 276 276 278 282 286 292 297 306 311 316 322 321 320 324
292 288 288 292 298 300 301 302 302 301 300 299 299 300 298 298 301 299 297 295 292 288 287 285 284 285 284 278 275 273 273 275 277 283 291 290 303 305 315 317 317 318 324
290 286 288 295 301 301 302 301 301 300 299 298 297 297 298 297 296 296 298 297 295 292 289 284 283 283 284 278 272 269 267 269 275 282 285 289 298 302 308 311 312 310 310
289 288 290 298 300 299 297 296 295 295 294 294 294 295 297 297 298 294 295 296 296 292 289 286 281 283 282 275 271 266 261 264 272 277 283 289 290 295 302 304 300 304 310
288 288 293 297 297 298 297 298 299 297 296 296 296 298 298 298 299 297 297 298 297 293 287 283 282 278 280 281 274 265 261 263 271 279 282 285 293 295 288 293 297 303 315
294 294 292 292 294 297 299 301 302 299 297 297 297 299 300 299 299 298 297 297 295 292 287 282 279 277 279 278 277 266 263 266 275 277 278 284 287 292 292 289 291 298 316
296 293 291 293 296 298 299 300 301 301 299 298 298 299 298 298 299 298 298 297 289 288 285 281 280 280 282 279 273 260 260 269 271 277 282 288 292 299 292 286 285 303 312
299 297 295 295 296 298 300 300 299 300 299 298 299 300 299 299 300 301 302 292 282 281 280 279 281 281 277 274 258 253 259 261 269 277 283 290 297 290 284 277 285 298 316
298 297 296 297 298 298 297 297 297 298 297 298 300 301 301 301 301 301 303 290 279 278 271 274 280 276 271 271 255 251 249 256 269 276 284 289 290 282 270 264 262 301 316
298 295 295 295 296 294 294 294 296 298 298 299 300 301 301 300 299 301 304 290 282 283 275 278 267 264 265 267 261 244 247 258 269 275 283 283 281 265 248 245 268 304 317
297 296 296 295 294 294 294 295 296 296 294 295 296 299 298 298 297 297 294 286 276 285 289 291 269 256 255 257 261 249 245 255 265 273 275 273 273 239 227 227 271 300 311
296 295 294 294 294 295 295 295 293 293 288 280 283 279 286 286 287 285 282 277 273 253 268 274 271 256 250 252 254 249 244 252 261 265 260 262 242 207 200 217 244 272 62
294 295 295 293 292 294 295 295 295 295 292 293 292 291 291 289 290 283 280 270 261 254 259 260 263 259 254 255 256 243 244 252 255 254 249 247 206 183 189 199 200 154 98
297 295 291 291 292 292 292 292 292 293 296 296 296 297 295 298 291 278 267 252 271 251 254 254 256 260 261 256 257 239 240 242 246 244 237 224 197 193 193 188 178 142 142
295 295 296 295 295 294 293 292 293 293 292 294 297 296 299 298 286 267 250 247 259 257 255 254 251 253 256 253 243 229 234 238 239 239 226 207 194 197 189 181 166 156 180
295 297 296 297 298 296 296 296 295 294 294 294 294 297 301 301 279 254 247 244 249 251 251 255 252 250 245 247 229 223 226 227 226 229 213 201 192 185 175 170 161 172 150
297 301 303 301 299 299 297 295 294 293 292 292 293 298 297 290 271 254 250 259 263 261 252 251 251 244 240 233 220 215 221 218 220 217 201 194 187 177 172 167 171 159 154
301 303 303 302 301 299 297 296 293 292 292 294 296 295 292 281 258 255 259 264 270 265 254 248 241 235 234 222 214 213 212 205 209 199 187 184 179 174 171 163 162 153 154
305 305 305 303 300 299 296 294 291 290 291 293 293 292 288 273 250 253 259 275 277 262 250 232 229 224 220 210 206 209 206 200 199 187 184 179 174 170 165 161 156 155 144
306 307 306 305 303 301 298 296 295 294 294 293 291 289 282 263 250 255 263 284 272 254 234 219 221 214 208 201 197 195 185 185 190 182 178 176 170 165 161 157 156 150 147
312 311 309 307 303 300 299 297 296 295 294 291 290 285 274 257 253 259 273 275 260 245 222 212 210 205 201 194 192 186 180 180 177 174 169 170 171 164 160 157 153 147 142
314 312 310 306 304 303 299 296 294 293 292 291 288 277 261 255 257 265 278 264 244 230 210 206 201 197 192 188 188 182 180 177 172 170 169 169 170 165 159 156 150 145 137
Wind_Speed_850mb
20 24 29 34 38 42 45 47 50 51 53 54 54 54 53 51 50 55 59 60 63 62 62 65 64 62 65 65 65 64 65 64 75 78 79 76 83 78 71 69 69 71 68
25 32 39 44 46 47 47 47 48 49 48 51 52 54 54 53 54 54 56 56 61 65 66 69 70 66 67 65 67 68 66 65 69 81 80 80 82 76 76 74 74 73 69
33 37 42 44 46 47 46 46 46 47 46 48 51 53 54 55 56 56 59 61 63 64 63 67 68 67 69 67 68 68 66 65 68 73 83 84 81 76 77 73 79 76 74
37 40 42 44 47 49 50 52 52 53 53 52 51 53 54 56 57 58 62 66 68 68 66 65 66 68 68 67 67 66 64 66 70 71 77 85 75 75 73 78 86 80 82
40 43 43 43 45 46 47 49 51 53 55 57 58 57 57 57 56 59 63 67 69 69 70 69 67 65 66 65 65 66 62 63 67 71 77 77 73 75 74 76 81 88 82
44 44 40 40 42 44 47 51 53 55 58 60 62 64 64 63 60 61 63 68 69 72 72 70 71 67 65 63 60 62 62 64 66 65 71 70 73 71 74 76 76 84 82
43 42 40 45 52 54 57 62 64 66 67 68 70 71 70 66 62 63 66 72 74 74 72 72 73 70 66 63 58 56 60 62 64 64 72 71 74 74 72 70 70 78 76
45 49 52 57 62 62 63 67 69 72 73 74 75 75 76 70 65 67 69 73 75 75 75 73 74 73 67 59 56 57 60 63 63 61 65 68 69 68 54 59 74 72 71
52 57 58 61 65 64 65 66 66 71 74 75 78 78 77 74 67 68 72 78 76 74 73 73 70 70 65 53 57 59 63 66 54 55 57 61 63 54 51 62 61 58 65
56 57 58 60 64 67 67 68 70 71 76 76 79 78 77 77 69 67 69 73 74 72 70 66 65 63 50 50 54 55 64 59 47 50 54 57 56 48 48 48 47 44 44
53 54 57 61 64 67 70 71 75 77 79 80 81 79 77 74 72 65 66 64 65 67 62 61 58 54 48 51 51 51 57 44 47 52 55 53 48 43 40 38 32 28 27
58 63 66 68 69 71 75 76 79 82 84 83 83 83 78 74 72 67 64 54 53 57 60 62 61 57 50 54 47 48 45 44 47 50 51 48 42 37 35 29 19 13 20
68 72 72 72 74 74 77 81 85 83 81 81 81 85 83 77 75 70 62 49 49 53 54 59 60 56 52 51 41 41 42 45 46 48 46 42 37 33 27 19 11 14 22
72 77 78 79 81 81 82 85 90 83 79 81 82 86 85 80 77 77 60 52 49 43 39 46 51 51 50 47 43 41 45 41 42 42 41 35 33 27 22 14 10 16 19
72 77 79 79 80 80 79 80 81 81 77 77 78 78 82 86 83 68 62 55 51 51 48 49 46 48 51 49 48 42 42 41 40 35 35 29 28 21 19 10 8 10 11
72 76 79 79 80 81 82 86 80 82 71 66 70 68 77 79 76 72 71 68 64 48 51 61 53 50 53 55 51 44 42 39 34 32 30 28 21 18 15 9 6 4 3
74 77 78 77 80 82 81 80 89 89 84 88 82 76 74 78 74 69 64 54 41 42 57 59 64 55 54 48 44 43 41 32 31 31 27 27 22 20 14 10 7 7 5
74 72 73 76 76 76 77 78 79 87 93 93 84 76 78 75 64 61 52 41 55 56 61 60 64 59 53 47 40 41 36 34 33 28 32 26 26 21 15 12 12 12 6
69 69 69 72 73 75 76 78 82 83 84 88 89 84 71 63 53 49 46 51 57 58 57 59 61 61 52 42 42 40 36 34 30 29 35 29 27 20 18 18 19 13 4
65 66 66 70 71 73 74 75 76 78 82 86 86 82 69 60 41 38 42 49 56 60 61 60 55 55 45 43 44 39 37 36 30 32 33 34 26 24 23 25 20 12 6
64 67 69 71 74 75 76 76 77 78 81 81 82 72 62 53 49 41 37 39 39 44 54 58 54 48 44 44 46 41 39 34 30 31 33 32 30 31 33 29 20 15 15
64 69 71 74 76 77 78 76 77 76 75 78 77 68 56 50 47 41 38 39 42 43 48 51 47 48 42 48 45 41 39 33 34 35 34 34 36 36 36 30 24 23 21
67 70 73 75 76 76 74 72 71 70 71 70 67 63 54 44 41 37 33 35 41 42 40 41 44 45 44 48 42 38 34 32 34 34 36 38 40 41 36 30 29 28 23
64 68 73 76 74 71 69 68 67 67 66 63 60 56 50 40 39 34 30 37 39 35 35 40 42 44 46 48 43 40 35 35 35 35 36 38 43 43 39 35 32 28 26
64 70 74 74 72 69 66 65 64 62 59 56 54 49 40 34 34 33 30 36 35 33 36 41 44 46 48 47 45 44 44 45 42 41 43 41 40 42 39 36 32 30 26
66 70 72 70 67 64 63 63 60 57 55 50 46 39 31 26 27 29 29 34 31 32 39 44 46 49 51 51 49 48 49 49 48 48 47 45 45 46 43 38 36 32 29
Wind_Direction_850mb
296 299 299 298 297 296 294 293 292 291 291 292 291 291 292 292 289 285 284 283 283 283 283 284 285 285 282 280 280 282 283 285 283 293 301 306 309 313 315 317 317 318 311
296 301 301 299 297 295 296 296 295 295 293 291 289 289 288 288 287 289 289 287 285 284 283 281 283 283 283 281 279 279 283 285 286 287 299 304 308 314 315 318 320 320 314
296 300 300 298 296 297 298 299 299 300 300 297 295 294 292 289 286 285 286 286 286 287 286 283 283 282 281 281 280 280 281 284 284 285 296 302 307 312 315 319 322 322 319
299 300 302 299 296 297 298 298 299 300 301 301 301 300 298 295 293 291 288 286 284 285 287 287 284 281 281 281 279 278 279 280 284 288 294 300 307 312 315 322 322 322 322
296 294 293 292 293 295 296 296 296 297 299 300 300 300 299 298 298 297 295 291 289 287 285 287 287 285 281 279 278 276 276 278 282 286 292 297 306 311 316 322 321 320 324
292 288 288 292 298 300 301 302 302 301 300 299 299 300 298 298 301 299 297 295 292 288 287 285 284 285 284 278 275 273 273 275 277 283 291 290 303 305 315 317 317 318 324
290 286 288 295 301 301 302 301 301 300 299 298 297 297 298 297 296 296 298 297 295 292 289 284 283 283 284 278 272 269 267 269 275 282 285 289 298 302 308 311 312 310 310
289 288 290 298 300 299 297 296 295 295 294 294 294 295 297 297 298 294 295 296 296 292 289 286 281 283 282 275 271 266 261 264 272 277 283 289 290 295 302 304 300 304 310
288 288 293 297 297 298 297 298 299 297 296 296 296 298 298 298 299 297 297 298 297 293 287 283 282 278 280 281 274 265 261 263 271 279 282 285 293 295 288 293 297 303 315
294 294 292 292 294 297 299 301 302 299 297 297 297 299 300 299 299 298 297 297 295 292 287 282 279 277 279 278 277 266 263 266 275 277 278 284 287 292 292 289 291 298 316
296 293 291 293 296 298 299 300 301 301 299 298 298 299 298 298 299 298 298 297 289 288 285 281 280 280 282 279 273 260 260 269 271 277 282 288 292 299 292 286 285 303 312
299 297 295 295 296 298 300 300 299 300 299 298 299 300 299 299 300 301 302 292 282 281 280 279 281 281 277 274 258 253 259 261 269 277 283 290 297 290 284 277 285 298 316
298 297 296 297 298 298 297 297 297 298 297 298 300 301 301 301 301 301 303 290 279 278 271 274 280 276 271 271 255 251 249 256 269 276 284 289 290 282 270 264 262 301 316
298 295 295 295 296 294 294 294 296 298 298 299 300 301 301 300 299 301 304 290 282 283 275 278 267 264 265 267 261 244 247 258 269 275 283 283 281 265 248 245 268 304 317
297 296 296 295 294 294 294 295 296 296 294 295 296 299 298 298 297 297 294 286 276 285 289 291 269 256 255 257 261 249 245 255 265 273 275 273 273 239 227 227 271 300 311
296 295 294 294 294 295 295 295 293 293 288 280 283 279 286 286 287 285 282 277 273 253 268 274 271 256 250 252 254 249 244 252 261 265 260 262 242 207 200 217 244 272 62
294 295 295 293 292 294 295 295 295 295 292 293 292 291 291 289 290 283 280 270 261 254 259 260 263 259 254 255 256 243 244 252 255 254 249 247 206 183 189 199 200 154 98
297 295 291 291 292 292 292 292 292 293 296 296 296 297 295 298 291 278 267 252 271 251 254 254 256 260 261 256 257 239 240 242 246 244 237 224 197 193 193 188 178 142 142
295 295 296 295 295 294 293 292 293 293 292 294 297 296 299 298 286 267 250 247 259 257 255 254 251 253 256 253 243 229 234 238 239 239 226 207 194 197 189 181 166 156 180
295 297 296 297 298 296 296 296 295 294 294 294 294 297 301 301 279 254 247 244 249 251 251 255 252 250 245 247 229 223 226 227 226 229 213 201 192 185 175 170 161 172 150
297 301 303 301 299 299 297 295 294 293 292 292 293 298 297 290 271 254 250 259 263 261 252 251 251 244 240 233 220 215 221 218 220 217 201 194 187 177 172 167 171 159 154
301 303 303 302 301 299 297 296 293 292 292 294 296 295 292 281 258 255 259 264 270 265 254 248 241 235 234 222 214 213 212 205 209 199 187 184 179 174 171 163 162 153 154
305 305 305 303 300 299 296 294 291 290 291 293 293 292 288 273 250 253 259 275 277 262 250 232 229 224 220 210 206 209 206 200 199 187 184 179 174 170 165 161 156 155 144
306 307 306 305 303 301 298 296 295 294 294 293 291 289 282 263 250 255 263 284 272 254 234 219 221 214 208 201 197 195 185 185 190 182 178 176 170 165 161 157 156 150 147
312 311 309 307 303 300 299 297 296 295 294 291 290 285 274 257 253 259 273 275 260 245 222 212 210 205 201 194 192 186 180 180 177 174 169 170 171 164 160 157 153 147 142
314 312 310 306 304 303 299 296 294 293 292 291 288 277 261 255 257 265 278 264 244 230 210 206 201 197 192 188 188 182 180 177 172 170 169 169 170 165 159 156 150 145 137